[[[{"header":{"parameterUnit":"kt","parameterCategory":2,"dx":1,"dy":1,"la1":30.253999710083008,"la2":30.299108505249023,"lo1":-89.0895004272461,"lo2":-89.04439544677734,"nx":28,"ny":28,"refTime":"2022-10-21T21:00:00:Z","depth":0,"parameterNumber":1,"parameterNumberName":"U-component_of_WINDS"},"data":[-6.1897,-6.1967,-6.1969,-6.205,-6.2065,-6.2121,-6.2141,-6.2168,-6.219,-6.2258,-6.2297,-6.2306,-6.2327,-6.2375,-6.2418,-6.2421,-6.2438,-6.2465,-6.2463,-6.2346,-6.233,-6.2315,-6.2297,-6.2469,-6.2469,-6.2582,-6.2584,-6.2584,-6.1817,-6.1833,-6.1876,-6.1917,-6.1955,-6.1931,-6.1963,-6.1995,-6.2046,-6.2073,-6.2111,-6.217,-6.2217,-6.223,-6.2276,-6.231,-6.23,-6.2322,-6.2318,-6.2322,-6.2198,-6.2179,-6.2329,-6.2329,-6.2329,-6.2329,-6.2329,-6.2329,-6.1672,-6.1714,-6.1739,-6.1785,-6.1806,-6.1835,-6.1875,-6.1883,-6.1925,-6.197,-6.1963,-6.202,-6.2046,-6.2099,-6.2117,-6.2163,-6.2138,-6.2161,-6.2166,-6.2172,-6.2179,-6.2016,-6.217,-6.217,-6.2169,-6.2169,-6.2169,0,-6.1565,-6.1563,-6.1602,-6.1644,-6.1677,-6.1708,-6.1736,-6.1761,-6.1754,-6.1789,-6.1839,-6.1868,-6.1925,-6.1973,-6.2014,-6.2027,-6.2003,-6.2001,-6.2017,-6.202,-6.202,-6.202,-6.1818,-6.1995,-6.1994,-6.1993,-6.1992,-6.1991,-6.1418,-6.1466,-6.1491,-6.1519,-6.1533,-6.1579,-6.1606,-6.1595,-6.1624,-6.1657,-6.1695,-6.1742,-6.1778,-6.1859,-6.1866,-6.1909,-6.1897,-6.1965,-6.1902,-6.1906,-6.1897,-6.1893,-6.1898,-6.1976,-6.1978,-6.1979,-6.1981,0,-6.1335,-6.1333,-6.1407,-6.1425,-6.1431,-6.1483,-6.1498,-6.154,-6.1541,-6.1598,-6.1611,-6.1612,-6.1662,-6.1657,-6.1711,-6.1707,-6.1795,-6.1783,-6.1787,-6.1783,-6.1843,-6.1837,-6.2039,-6.2064,-6.1888,-6.1889,-6.1891,0,-6.1207,-6.1271,-6.1263,-6.1306,-6.1377,-6.1362,-6.1433,-6.144,-6.1459,-6.1504,-6.1476,-6.1518,-6.1504,-6.1547,-6.1541,-6.1611,-6.1622,-6.1622,-6.1619,-6.1623,-6.1623,-6.1636,-6.1626,-6.1611,-6.161,-6.161,-6.1609,0,-6.1076,-6.1145,-6.1215,-6.123,-6.1253,-6.1287,-6.1298,-6.1319,-6.1344,-6.1377,-6.1394,-6.1433,-6.1454,-6.1486,-6.1477,-6.1435,-6.1563,-6.1503,-6.1563,-6.1563,-6.1588,-6.1586,-6.1769,-6.1607,-6.1607,-6.1607,-6.1606,0,-6.097,-6.1002,-6.1104,-6.1122,-6.114,-6.1186,-6.1223,-6.1261,-6.1284,-6.1282,-6.1308,-6.1286,-6.1346,-6.1288,-6.1371,-6.1319,-6.1343,-6.1348,-6.1352,-6.1354,-6.1288,-6.139,-6.1566,-6.1583,-6.1362,-6.136,-6.1358,0,-6.0821,-6.0921,-6.0907,-6.1003,-6.1048,-6.1011,-6.1063,-6.1083,-6.1084,-6.1123,-6.1125,-6.1168,-6.1123,-6.1135,-6.1178,-6.1181,-6.1249,-6.1172,-6.1228,-6.123,-6.1221,-6.1384,-6.141,-6.1529,-6.1332,-6.1335,-6.1337,0,-6.0703,-6.0728,-6.0746,-6.0761,-6.0784,-6.082,-6.0879,-6.0918,-6.0944,-6.097,-6.1018,-6.108,-6.1048,-6.1068,-6.1053,-6.1098,-6.1203,-6.1057,-6.1057,-6.1083,-6.1318,-6.1343,-6.1363,-6.1183,-6.1187,-6.1189,-6.1316,0,-6.0543,-6.0591,-6.0639,-6.0672,-6.0699,-6.0758,-6.0747,-6.0777,-6.076,-6.0758,-6.0829,-6.0842,-6.088,-6.0901,-6.0883,-6.0986,-6.0967,-6.0932,-6.0871,-6.0979,-6.102,-6.1037,-6.0811,-6.0809,-6.0807,-6.0806,0,0,-6.04,-6.0467,-6.0446,-6.0501,-6.0522,-6.0479,-6.0543,-6.0559,-6.059,-6.0606,-6.0573,-6.066,-6.067,-6.0757,-6.079,-6.0806,-6.0823,-6.0784,-6.0928,-6.0941,-6.0954,-6.0999,-6.1016,-6.0803,-6.0803,-6.0802,-6.0802,0,-6.0338,-6.0349,-6.0411,-6.0426,-6.0447,-6.0441,-6.0456,-6.0469,-6.047,-6.0537,-6.05,-6.0541,-6.0609,-6.0626,-6.0643,-6.0775,-6.0743,-6.0788,-6.0862,-6.0913,-6.0928,-6.0942,-6.0989,-6.1006,-6.0798,-6.0798,-6.0798,0,-6.0219,-6.0227,-6.0255,-6.0299,-6.0312,-6.0358,-6.0292,-6.0343,-6.0376,-6.0324,-6.0391,-6.0396,-6.0417,-6.0499,-6.0536,-6.0506,-6.0671,-6.0616,-6.0626,-6.0629,-6.0677,-6.0695,-6.0712,-6.049,-6.0489,-6.0488,0,0,-6.0166,-6.0209,-6.0212,-6.0285,-6.0295,-6.0286,-6.0308,-6.0291,-6.0309,-6.0317,-6.0321,-6.034,-6.038,-6.0406,-6.0442,-6.0535,-6.0537,-6.0579,-6.0593,-6.0605,-6.0615,-6.0666,-6.0684,-6.0484,-6.0484,-6.0484,0,0,-6.014,-6.0146,-6.0124,-6.0207,-6.0226,-6.0232,-6.0277,-6.0251,-6.0281,-6.0272,-6.0246,-6.025,-6.0327,-6.0332,-6.0282,-6.042,-6.036,-6.0372,-6.0413,-6.0431,-6.0445,-6.0441,-6.0214,0,0,0,0,0,-6.0068,-6.0145,-6.0126,-6.0137,-6.019,-6.0244,-6.0251,-6.023,-6.0189,-6.0226,-6.0225,-6.0189,-6.03,-6.0255,-6.0267,-6.0322,-6.0434,-6.0443,-6.0452,-6.0526,-6.0545,-6.0561,0,0,0,0,0,0,-6.0073,-6.0087,-6.0123,-6.0134,-6.0145,-6.0241,-6.0166,-6.0163,-6.0184,-6.0177,-6.019,-6.0189,-6.0172,-6.0247,-6.0259,-6.0311,-6.021,-6.0438,-6.0445,-6.0452,-6.0532,-6.0548,-6.0561,0,0,0,0,0,-6.0076,-6.0088,-6.0178,-6.0132,-6.0142,-6.0134,-6.0163,-6.016,-6.0176,-6.0173,-6.0171,-6.0158,-6.0175,-6.0183,-6.0254,-6.0306,-6.0202,-6.0206,-6.0443,-6.0449,-6.0454,-6.054,0,0,0,0,0,0,-6.0079,-6.0085,-6.0179,-6.0182,-6.01,-6.0128,-6.0132,-6.0157,-6.0171,-6.0169,-6.014,-6.0133,-6.0177,-6.0183,-6.0189,-6.0306,-6.0195,-6.02,-6.0202,-6.0447,-6.0452,-6.0456,0,0,0,0,0,0,-6.0079,-6.0088,-6.0181,-6.0142,-6.0139,-6.0123,-6.0126,-6.0183,-6.0171,-6.0136,-6.0131,-6.0137,-6.0167,-6.0183,-6.0188,-6.0278,-6.019,-6.0194,-6.0197,-6.0199,-6.0451,-6.0455,0,0,0,0,0,0,-6.0082,-6.009,-6.0141,-6.0139,-6.0137,-6.0162,-6.0173,-6.0228,-6.0138,-6.0136,-6.0129,-6.0125,-6.0169,-6.0173,-6.0188,-6.0275,-6.0277,-6.019,-6.0193,-6.0195,-6.0197,0,0,0,0,0,0,0,-6.0085,-6.0039,-6.0165,-6.0137,-6.0135,-6.0204,-6.0204,-6.0205,-6.0137,-6.0134,-6.013,-6.0127,-6.0166,-6.0171,-6.0175,-6.0274,0,0,-6.019,-6.0192,0,0,0,0,0,0,0,0,-6.0036,-6.0038,-6.0166,-6.0166,-6.0166,-6.0204,-6.0204,-6.0205,-6.0137,-6.0134,-6.0131,-6.0128,-6.0167,-6.0171,-6.0175,0,0,0,0,0,0,0,0,0,0,0,0,0,0,0,-6.0166,-6.0166,0,-6.0204,-6.0204,-6.0205,-6.0136,-6.0134,-6.0132,-6.0129,-6.0168,-6.0171,-6.0175,0,0,0,0,0,0,0,0,0,0,0,0,0,0,0,0,0,0,0,0,0,0,0,0,0,0,0,0,0,0,0,0,0,0,0,0,0,0,0,0,0,0,0,0,0,0,0,0,0,0,0,0,0,0,0,0,0,0,0,0,0,0,0,0,0,0,0,0,0]}],[{"header":{"parameterUnit":"kt","parameterCategory":2,"dx":1,"dy":1,"la1":30.253999710083008,"la2":30.299108505249023,"lo1":-89.0895004272461,"lo2":-89.04439544677734,"nx":28,"ny":28,"refTime":"2022-10-21T21:00:00:Z","depth":0,"parameterNumber":2,"parameterNumberName":"V-component_of_WINDS"},"data":[4.9378,4.9328,4.9344,4.9293,4.9299,4.9266,4.9259,4.9251,4.9248,4.9208,4.9188,4.9196,4.9196,4.9173,4.9149,4.9152,4.9141,4.9113,4.9121,4.9236,4.9253,4.9269,4.9283,4.911,4.911,4.9,4.8999,4.8998,4.9463,4.9469,4.9447,4.9436,4.9417,4.9455,4.9448,4.9428,4.9397,4.9392,4.9372,4.9337,4.931,4.9319,4.9295,4.9269,4.9283,4.9261,4.9262,4.9262,4.9385,4.94,4.925,4.925,4.925,4.925,4.925,4.925,4.9623,4.9592,4.9596,4.9572,4.957,4.9562,4.9534,4.9546,4.9523,4.9501,4.9522,4.9485,4.9481,4.9457,4.9451,4.9421,4.9448,4.9427,4.9421,4.9415,4.9408,4.9565,4.9417,4.9418,4.9418,4.9419,4.9419,0,4.9745,4.9761,4.9741,4.9725,4.9708,4.9696,4.9688,4.9671,4.9705,4.9683,4.9653,4.9637,4.9605,4.9575,4.9554,4.9553,4.9585,4.9589,4.9575,4.9565,4.9559,4.9562,4.9763,4.9593,4.9594,4.9596,4.9596,4.9597,4.9908,4.987,4.988,4.9863,4.9863,4.9834,4.982,4.9854,4.9837,4.9829,4.9798,4.977,4.9749,4.9694,4.9704,4.9678,4.9693,4.9627,4.9688,4.9681,4.9691,4.9693,4.9689,4.9613,4.9611,4.961,4.9608,0,4.9998,5.0025,4.9969,4.9982,4.9984,4.9941,4.9951,4.992,4.9934,4.9892,4.9884,4.9904,4.9871,4.9892,4.9857,4.9869,4.9794,4.981,4.9797,4.9801,4.9744,4.9749,4.9555,4.9532,4.9711,4.971,4.9708,0,5.0147,5.0094,5.0136,5.0102,5.0045,5.0081,5.0022,5.0028,5.0027,4.9994,5.0036,5.0004,5.0036,5.0005,5.0022,4.9965,4.9958,4.9963,4.9968,4.9959,4.9958,4.9947,4.9955,4.998,4.9981,4.9982,4.9983,0,5.0285,5.0245,5.0191,5.0186,5.0193,5.0165,5.0166,5.0164,5.0149,5.0131,5.0122,5.0097,5.0084,5.0064,5.0086,5.0127,5.0016,5.0077,5.0021,5.002,4.9994,4.9995,4.982,4.9984,4.9984,4.9985,4.9985,0,5.0408,5.0394,5.0312,5.0319,5.0307,5.027,5.0251,5.0225,5.0218,5.0228,5.0214,5.0244,5.0196,5.0255,5.0189,5.0237,5.022,5.0221,5.0217,5.0213,5.0278,5.0176,5.0008,4.9991,5.0211,5.0213,5.0214,0,5.0559,5.0483,5.0515,5.0434,5.0402,5.0454,5.0413,5.0406,5.0416,5.0388,5.0397,5.0363,5.0412,5.0403,5.0368,5.0375,5.0312,5.0384,5.0338,5.0336,5.0339,5.0185,5.0155,5.0043,5.0239,5.0236,5.0234,0,5.068,5.0691,5.0674,5.067,5.0669,5.0641,5.0594,5.057,5.055,5.0537,5.0497,5.0449,5.0484,5.047,5.049,5.0452,5.0355,5.0494,5.0494,5.0468,5.0253,5.0225,5.0206,5.0377,5.0375,5.0372,5.0254,0,5.0861,5.0826,5.0782,5.077,5.0752,5.0702,5.0728,5.0706,5.073,5.074,5.0681,5.0678,5.0649,5.0633,5.0654,5.0561,5.0579,5.0615,5.0673,5.0572,5.0533,5.0518,5.0729,5.0731,5.0732,5.0734,0,0,5.0999,5.0949,5.0984,5.0941,5.0928,5.0982,5.0927,5.0919,5.0902,5.0891,5.0924,5.0856,5.085,5.0775,5.0745,5.0733,5.0718,5.0751,5.062,5.0607,5.0595,5.0554,5.0537,5.0736,5.0737,5.0738,5.0738,0,5.1071,5.1071,5.1017,5.1013,5.1007,5.1022,5.1009,5.1011,5.1015,5.0958,5.1,5.0966,5.0909,5.0899,5.0885,5.0762,5.0794,5.0751,5.0678,5.0635,5.062,5.0607,5.0563,5.0547,5.0742,5.0741,5.0741,0,5.1194,5.1198,5.1175,5.1149,5.1145,5.1109,5.1178,5.1136,5.1109,5.1165,5.1106,5.1107,5.1094,5.102,5.0987,5.1015,5.0862,5.0913,5.0904,5.09,5.0859,5.0841,5.0825,5.1034,5.1035,5.1035,0,0,5.1252,5.1219,5.1233,5.1167,5.1161,5.1182,5.1165,5.1187,5.1177,5.1172,5.1174,5.116,5.1128,5.1105,5.1075,5.0989,5.0988,5.0948,5.0934,5.0923,5.0913,5.0869,5.0851,5.1039,5.1039,5.1039,0,0,5.1278,5.1293,5.132,5.1247,5.1238,5.1244,5.1201,5.1233,5.1209,5.1217,5.1248,5.1246,5.1177,5.1174,5.122,5.1095,5.1152,5.1141,5.1099,5.1082,5.1068,5.107,5.1286,0,0,0,0,0,5.1365,5.1292,5.1316,5.1308,5.1273,5.1232,5.1227,5.1254,5.1295,5.126,5.1267,5.1302,5.1206,5.1247,5.1236,5.1184,5.1085,5.1077,5.1069,5.0995,5.0977,5.0961,0,0,0,0,0,0,5.1362,5.1352,5.1318,5.1322,5.1314,5.1234,5.131,5.1315,5.1299,5.1307,5.13,5.1301,5.1321,5.1254,5.1244,5.1194,5.1289,5.1082,5.1075,5.1069,5.0988,5.0974,5.0961,0,0,0,0,0,5.136,5.1352,5.129,5.1323,5.1316,5.1334,5.1313,5.1318,5.1305,5.1314,5.1317,5.1327,5.1318,5.1311,5.1248,5.1198,5.1297,5.1293,5.1077,5.1072,5.1067,5.0981,0,0,0,0,0,0,5.1358,5.1354,5.1289,5.1288,5.1353,5.1339,5.1339,5.132,5.1314,5.1317,5.1343,5.135,5.1316,5.1311,5.1305,5.1198,5.1302,5.1298,5.1296,5.1073,5.1069,5.1065,0,0,0,0,0,0,5.1359,5.1353,5.1288,5.1325,5.1328,5.1344,5.1343,5.1291,5.1313,5.1344,5.1349,5.1346,5.1323,5.131,5.1306,5.1225,5.1307,5.1303,5.1301,5.1299,5.107,5.1066,0,0,0,0,0,0,5.1357,5.1352,5.1325,5.1328,5.1331,5.132,5.1298,5.126,5.1349,5.1343,5.1357,5.1361,5.1321,5.1318,5.1306,5.1226,5.1225,5.1307,5.1304,5.1302,5.1301,0,0,0,0,0,0,0,5.1355,5.1384,5.1296,5.133,5.1333,5.1278,5.1277,5.1277,5.1349,5.1353,5.1356,5.1359,5.1329,5.1325,5.132,5.1228,0,0,5.1307,5.1305,0,0,0,0,0,0,0,0,5.1387,5.1385,5.1296,5.1296,5.1296,5.1277,5.1277,5.1277,5.135,5.1353,5.1355,5.1358,5.1328,5.1324,5.1321,0,0,0,0,0,0,0,0,0,0,0,0,0,0,0,5.1296,5.1296,0,5.1277,5.1277,5.1277,5.135,5.1352,5.1355,5.1357,5.1327,5.1324,5.1321,0,0,0,0,0,0,0,0,0,0,0,0,0,0,0,0,0,0,0,0,0,0,0,0,0,0,0,0,0,0,0,0,0,0,0,0,0,0,0,0,0,0,0,0,0,0,0,0,0,0,0,0,0,0,0,0,0,0,0,0,0,0,0,0,0,0,0,0,0]}]]]